Tracking 27419 objects as of 10-Jun-2023
HD Live streaming from Space Station
objects crossing your sky now

STARLINK-4431

Track STARLINK-4431 now!
10-day predictions
STARLINK-4431 is classified as:


NORAD ID: 53486
Int'l Code: 2022-099X
Perigee: 568.8 km
Apogee: 571.5 km
Inclination: 97.7 °
Period: 95.9 minutes
Semi major axis: 6941 km
RCS: Unknown
Launch date: August 12, 2022
Source: United States (US)
Launch site: AIR FORCE WESTERN TEST RANGE (AFWTR)
Your satellite tracking list
Your tracking list is empty




NASA's NSSDC Master Catalog

Two Line Element Set (TLE):
1 53486U 22099X   23161.04848563  .00000477  00000-0  41695-4 0  9996
2 53486  97.6521 282.2296 0001917 230.5373 129.5681 15.01256203 45646
Source of the keplerian elements: AFSPC